Simultaneous Nadir Overpasses (SNOs) Predictions

Prediction of SNOs between AQUA and NPP Satellite Orbit:

Table of predicted SNOs for the next 14.0 days since TLE Epoch: 4/22/2023
Index Date (AQUA) Time (AQUA) Lat,Lon (AQUA) SZA (AQUA ) Date (NPP) Time (NPP) Lat,Lon (NPP) SZA (NPP ) Distance(km) Time Diff (sec)
1 04/22/2023 09:20:27 -80.14, 123.14 100.89 04/22/2023 09:19:44 -80.14, 123.05 100.85 1.80 43
2 04/22/2023 10:09:45 80.33, -67.37 78.77 04/22/2023 10:10:21 80.34, -67.30 78.73 1.36 36
3 04/24/2023 23:55:49 -80.15, -95.59 101.78 04/24/2023 23:55:06 -80.15, -95.68 101.74 1.62 43
4 04/25/2023 00:45:06 80.37, 74.19 77.83 04/25/2023 00:45:42 80.37, 74.27 77.79 1.55 36
5 04/27/2023 14:31:08 -80.21, 46.15 102.74 04/27/2023 14:30:26 -80.21, 46.15 102.71 0.19 42
6 04/27/2023 15:20:26 80.40,-144.38 76.93 04/27/2023 15:21:03 80.40,-144.22 76.88 2.99 37
7 04/30/2023 05:06:25 -80.26,-172.22 103.64 04/30/2023 05:05:45 -80.26,-172.08 103.64 2.65 40
8 04/30/2023 05:55:45 80.38, -3.37 76.14 04/30/2023 05:56:25 80.37, -3.41 76.12 0.73 40
9 05/02/2023 19:41:43 -80.26, -31.01 104.44 05/02/2023 19:41:07 -80.26, -30.99 104.41 0.35 36
10 05/02/2023 20:31:03 80.38, 137.82 75.35 05/02/2023 20:31:47 80.37, 137.66 75.35 3.15 44
11 05/05/2023 10:16:59 -80.28, 110.39 105.23 05/05/2023 10:16:28 -80.27, 110.36 105.21 0.67 31



Historial Predications of SNOs between AQUA and NPP
